Location: Binningen
(47.7924°N, 8.7261°E)
Time: 15:58:42
(UTC+00:00)

Thor Agena Rocket - Pass Details

Date: 17 May 2021
Orbit: 760 x 807 km, 99.0° (Epoch: 21 June)

Event Time Altitude Azimuth Distance (km) Brightness Sun altitude
Rises 22:35:46 0° 22° (NNE) 3,318 7.7 -21.9°
Reaches altitude 10° 22:38:19 10° 31° (NNE) 2,389 6.7 -22.0°
Maximum altitude 22:43:08 35° 97° (E) 1,279 4.5 -22.1°
Enters shadow 22:43:58 33° 117° (ESE) 1,325 4.4 -22.1°
